Location: Newark
(45.2500°N, 7.5833°E)
Time: 17:31:39
(UTC+00:00)

Tiros 1 despin weight - Pass Details

Date: 04 February 2020
Orbit: 594 x 642 km, 48.2° (Epoch: 27 February)

Event Time Altitude Azimuth Distance (km) Brightness Sun altitude
Rises 07:18:17 0° 235° (SW) 2,823 ? 4.1°
Reaches altitude 10° 07:20:34 10° 231° (SW) 1,927 ? 4.5°
Maximum altitude 07:24:55 60° 152° (SSE) 691 ? 5.1°
Drops below altitude 10° 07:29:20 10° 73° (ENE) 1,957 ? 5.8°
Sets 07:31:40 0° 70° (ENE) 2,871 ? 6.1°
